Powrót do katalogu

LEMUR 2 FURIAUS

AktywnyNaukaSSO
NORAD 42840·PAYLOAD·🇺🇸 United States

Wystrzelony Jul 14, 2017 z Baikonur Cosmodrome

Loading…

Następne Przeloty (najbliższe 24 godziny)

TLE

ŚwieżeSource: Space-Track

Epoka: Sep 14, 2026, 10:56 UTC

1 42840U 17042R   26257.45615886  .00014434  00000-0  45534-3 0  9997
2 42840  97.3808  75.6284 0007939 102.2610 257.9521 15.32939575501878

Śledź LEMUR 2 FURIAUS w czasie rzeczywistym z AllMySat

Download on the App Store